Weather Roundup
Issued by NWS Chicago, IL

Home | Current Version | Previous Version | Text Only | Print | Product List | Glossary Off
Versions: 1 2 3 4 5 6 7 8 9 10 11 12 13 14 15 16 17 18 19 20 21 22 23 24 25 26 27 28 29 30 31 32 33 34 35 36 37 38 39 40 41 42 43 44 45 46 47 48 49 50

000
NZUS59 KLOT 260406
HRRLOT

CHICAGO AREA WEATHER ROUNDUP
NATIONAL WEATHER SERVICE CHICAGO/ROMEOVILLE IL
1000 PM CST TUE NOV 25 2014

NOTE: "FAIR" INDICATES FEW OR NO CLOUDS BELOW 12,000 FEET WITH NO
SIGNIFICANT WEATHER AND/OR OBSTRUCTIONS TO VISIBILITY.

* THESE STATIONS ARE NOT UNDER NWS QUALITY CONTROL. THEY ALSO MAY NOT
  REPORT WEATHER SUCH AS PRECIPITATION OR FOG.

ILZ005-006-012>014-019>023-260500-
NORTHEAST ILLINOIS

CITY           SKY/WX    TMP DP  RH WIND       PRES   REMARKS
OHARE            N/A     19  15  84 S5        30.19R WCI  12
MIDWAY         CLOUDY    24  18  77 S7        30.21R WCI  16
AURORA         CLEAR     15  10  80 SE3       30.20R HAZE
LANSING*       CLOUDY    23  19  83 S6        30.22R WCI  16
JOLIET*        CLOUDY    21  18  88 S3        30.21S
WAUKEGAN       CLEAR     14  12  92 SW3       30.18R
DUPAGE AIRPORT MOCLDY    15  12  88 S6        30.18S WCI   6
WHEELING       MOCLDY    19  15  84 S3        30.21R
KANKAKEE*      CLOUDY   N/A N/A N/A S5        30.22R
MORRIS*        CLOUDY    22  20  91 S7        30.20S WCI  14
NORTHERLY IS     N/A     23  17  78 S7          N/A  WCI  15
$$

WIZ051-052-058>065-066-070>072-260500-
SOUTHEAST WISCONSIN

CITY           SKY/WX    TMP DP  RH WIND       PRES   REMARKS
MILWAUKEE      MOCLDY    19  14  81 SW5       30.17S WCI  12
KENOSHA*       CLOUDY    19  15  84 SW3       30.18S
RACINE*        CLOUDY    21  15  78 SW6       30.19R WCI  13
BURLINGTON     CLEAR     12  11  95 S3        30.16F
WAUKESHA       PTCLDY    16  14  93 CALM      30.15F
$$

INZ001>003-010>013-019-020-260500-
NORTHWEST INDIANA

CITY           SKY/WX    TMP DP  RH WIND       PRES   REMARKS
GARY*          CLOUDY    25  19  78 S5        30.22R WCI  19
MICHIGAN CITY* NOT AVBL
RENSSELAER*    NOT AVBL
VALPARAISO     CLOUDY    23  18  81 S6        30.21S WCI  16
$$

LMZ740>746-260500-
SOUTHERN LAKE MICHIGAN

STATION/POSITION TIME  SKY/WX   TEMP WIND        PRES    VSBY
                                AIR  DIR/SP/G
                 (UTC)          (F)  (DEG/KT/KT) (MB)    (MI)
HARRISON CRIB    0400            23  200/ 12/ 14   N/A
BURNHAM HARBOR   0400            23  200/  6/  9   N/A
CALUMET HARBOR   0400            24  170/  5/  8 1021.6S
BURNS HARBOR     NOT AVBL
MICHIGAN CITY    0400            24  170/ 10/ 11   N/A
$$

ABBREVIATIONS USED IN REMARKS
   TC - TEMPERATURE IN CELSIUS
  WCI - WIND CHILL INDEX
   HX - HEAT INDEX
  VSB - VISIBILITY
$$



USA.gov is the U.S. government's official web portal to all federal, state and local government web resources and services.